Wind_Speed
74 70 66 61 62 64 63 62 60 62 61 66 73 79 86 89 91 87 86 84 75 75 75 71 67 71 59 52 52 54 53 50 44 38 32 31 24 26 31 41 41 43 43
75 72 68 64 60 62 65 66 64 60 60 61 64 71 78 83 86 87 86 84 80 74 75 74 69 67 57 54 47 51 54 52 40 37 35 28 22 26 29 41 41 42 40
72 71 69 66 63 60 64 67 65 62 61 61 60 64 70 75 81 83 84 84 82 77 74 73 73 69 66 59 56 55 52 48 39 38 35 31 24 26 35 43 37 39 41
71 69 68 67 64 60 58 62 66 64 62 62 61 61 65 69 73 77 80 80 81 83 80 77 75 74 73 64 64 60 58 50 44 42 35 30 28 28 38 37 35 35 40
72 72 70 67 63 61 58 58 61 63 62 62 60 60 61 64 68 72 75 76 78 81 82 79 75 76 77 77 65 62 61 48 45 40 35 30 25 26 37 32 32 34 40
72 73 72 70 66 60 58 57 57 59 62 62 60 56 58 61 65 66 69 71 74 77 82 81 77 77 79 73 63 62 56 47 47 37 33 28 20 29 36 30 29 35 35
69 69 70 71 68 63 60 57 56 58 60 60 61 58 56 55 61 65 67 66 69 73 80 83 79 75 77 74 73 66 60 50 51 40 32 29 23 32 34 30 30 34 33
72 71 73 72 69 66 63 59 59 59 60 61 59 58 56 54 57 61 65 62 63 69 78 82 80 79 76 72 66 69 60 55 49 44 36 29 26 27 32 36 28 29 32
73 74 75 73 70 68 64 64 62 60 61 61 58 56 55 54 57 60 62 61 61 69 78 84 84 81 76 74 66 66 62 57 49 41 37 30 29 29 36 25 24 28 36
75 75 74 71 68 67 65 62 60 59 58 59 58 58 54 53 58 59 61 60 61 67 77 84 84 80 76 73 67 65 60 55 48 41 38 31 28 31 35 26 23 28 33
74 71 65 63 60 60 60 61 60 59 59 61 60 59 57 56 58 60 60 60 63 69 77 81 84 80 75 71 67 66 61 56 50 44 38 34 31 29 27 21 20 28 32
67 61 56 57 56 56 55 56 55 54 58 63 68 66 61 61 59 60 60 61 65 69 75 80 84 78 77 73 68 64 59 54 46 46 41 36 33 31 27 21 25 28 33
55 52 53 52 50 49 47 50 48 51 53 59 64 66 61 65 63 62 61 62 67 72 77 82 83 81 80 74 70 65 60 56 51 44 40 36 35 35 27 25 22 29 38
46 46 44 38 39 39 37 42 43 45 47 53 58 57 55 65 65 61 61 65 70 75 80 87 84 85 78 73 70 69 63 57 49 49 39 40 38 34 29 27 27 29 38
38 39 33 30 34 32 35 36 33 35 36 38 41 42 49 62 62 62 66 70 75 81 88 90 87 85 79 75 71 70 61 53 47 43 38 41 40 37 33 25 25 32 42
33 29 27 29 29 27 27 26 25 27 28 30 34 44 55 55 57 60 64 72 77 85 90 88 92 89 87 78 65 61 62 53 47 41 41 40 42 42 35 26 31 39 37
28 24 25 26 28 25 21 20 22 21 24 29 37 46 54 56 57 63 70 75 82 84 87 89 90 86 83 73 67 61 57 50 48 46 42 45 44 39 34 32 30 39 37
21 22 22 24 29 24 21 22 22 24 28 35 40 46 48 53 61 66 71 77 82 87 88 87 81 75 71 67 64 63 58 53 53 43 46 49 41 35 33 31 31 36 37
21 23 21 24 23 22 24 26 28 29 30 33 37 44 52 61 66 71 80 84 87 88 82 76 75 73 74 65 63 59 58 57 48 46 50 47 43 42 36 31 36 42 35
22 23 23 24 24 23 24 28 29 30 33 38 46 56 63 68 75 78 80 86 85 80 76 78 74 67 63 59 56 55 51 52 51 49 49 49 42 36 37 43 36 37 36
20 22 22 22 20 21 24 27 32 37 43 51 61 69 75 79 80 80 83 81 78 77 75 72 65 67 66 60 55 53 54 52 51 51 51 46 39 37 35 29 32 37 30
19 20 19 17 19 22 27 35 44 50 57 67 75 80 81 80 77 77 77 77 78 73 72 70 62 63 65 57 53 53 53 53 52 50 50 43 41 38 37 31 36 37 33
18 18 17 19 23 29 36 46 58 67 73 79 83 82 81 80 74 67 72 72 70 64 71 71 60 60 61 60 60 60 58 57 53 44 43 33 35 35 31 32 38 37 35
15 16 18 25 32 40 48 59 70 78 83 85 83 83 80 78 78 76 75 70 66 60 64 64 68 64 62 63 59 55 55 52 50 47 40 39 41 41 41 44 43 39 39
15 18 25 33 42 53 67 74 81 82 85 82 83 82 83 83 76 73 72 70 70 67 67 65 66 64 62 60 58 54 52 50 45 46 44 46 45 41 40 44 47 44 46
14 19 29 39 49 61 72 80 84 85 84 86 86 86 86 87 82 74 71 70 69 68 67 65 60 57 58 53 54 56 52 51 52 55 54 52 48 44 46 48 47 46 48
Wind_Direction
289 288 286 278 274 269 265 263 260 258 255 248 244 243 241 242 241 239 239 239 239 235 233 232 236 236 233 235 232 234 240 243 254 259 258 271 276 296 316 311 316 318 327
287 288 284 279 273 268 263 261 260 260 259 256 250 245 243 242 240 239 236 235 233 234 234 229 230 228 222 224 229 232 238 243 247 259 250 264 273 295 313 307 311 317 327
282 282 282 279 276 271 263 261 261 258 257 256 254 249 245 242 241 239 237 233 232 229 230 229 226 224 221 221 224 230 234 237 245 248 247 257 266 291 305 303 308 317 325
280 281 281 280 278 276 268 259 259 259 256 256 254 251 246 242 240 239 237 234 230 229 224 225 223 222 221 219 226 230 238 236 251 240 246 252 261 285 294 300 302 318 319
280 280 280 279 278 276 270 263 257 259 259 255 251 252 248 244 241 239 236 233 229 226 225 223 221 219 219 222 227 226 232 237 247 232 242 245 254 290 293 292 302 314 316
277 278 279 280 280 276 272 265 259 257 258 258 256 250 248 243 240 239 238 232 226 222 222 220 220 218 218 224 215 224 233 234 233 226 230 235 257 283 291 285 304 308 317
273 275 276 276 277 276 271 269 263 257 256 255 255 254 248 242 238 236 236 232 224 219 217 216 216 216 216 221 217 221 228 231 228 221 226 236 256 279 282 288 299 309 326
272 275 275 276 276 275 272 268 265 262 258 255 252 251 248 244 235 231 232 231 224 216 214 212 211 213 213 216 215 218 225 228 223 224 227 237 253 276 276 287 298 309 327
273 275 275 276 276 274 272 270 266 260 256 254 251 250 245 241 233 226 227 225 219 214 210 209 209 210 210 213 212 214 222 227 219 218 229 235 250 272 280 282 296 320 326
274 275 277 279 278 275 273 269 262 256 250 244 242 242 237 235 229 222 221 220 217 211 207 206 204 207 207 209 208 210 218 222 215 220 226 230 249 268 273 274 294 316 322
272 274 277 275 272 267 264 261 256 250 243 238 235 234 228 225 223 217 215 213 211 206 204 203 200 203 202 203 204 206 215 220 219 223 220 235 248 260 254 270 293 307 314
275 276 272 269 267 265 263 260 254 249 242 237 232 228 222 217 213 211 209 207 205 202 199 197 196 197 197 198 200 203 212 218 215 219 227 234 243 255 255 270 291 304 320
270 268 267 264 262 260 259 256 251 248 243 235 231 228 221 210 204 205 203 201 201 197 192 190 192 192 195 195 197 196 210 216 216 216 223 229 238 260 258 272 281 297 309
270 267 261 261 256 256 257 256 252 247 241 235 234 233 220 203 202 200 197 197 196 190 188 186 188 191 191 192 196 202 211 213 217 217 224 225 241 247 252 267 280 298 308
262 259 259 256 255 255 256 254 251 242 241 238 236 227 207 203 200 195 193 193 190 186 185 184 186 190 187 190 199 202 206 214 211 215 226 232 246 241 253 267 285 298 304
261 259 250 246 245 246 244 241 238 230 223 213 208 201 200 202 196 192 189 189 185 183 182 184 186 188 188 193 191 197 205 210 211 220 225 236 240 243 255 267 278 295 297
259 239 229 235 230 228 229 228 226 219 206 195 196 196 200 199 193 185 185 184 182 180 180 184 188 189 188 192 196 202 204 212 216 219 223 237 236 241 255 265 274 290 295
227 214 220 225 220 218 219 215 212 209 204 196 197 199 197 188 182 180 179 177 176 177 182 186 188 185 186 191 197 200 206 214 213 214 229 229 234 247 257 268 280 291 290
206 212 224 224 218 213 212 213 210 207 202 198 194 188 181 177 175 174 169 171 174 179 182 183 183 188 191 197 198 197 203 206 207 221 223 228 240 247 259 268 275 287 295
207 214 222 222 220 218 215 214 206 199 190 183 176 169 168 167 166 167 167 170 175 178 178 182 188 190 190 190 193 195 199 203 210 219 226 235 244 247 255 272 277 283 290
218 222 224 221 217 213 202 194 181 175 170 165 162 160 160 161 161 166 168 171 173 174 177 180 180 184 183 184 188 199 208 212 215 222 228 235 240 248 257 267 281 281 292
221 221 218 215 203 187 176 169 167 166 163 160 158 157 158 160 164 167 169 172 172 173 177 176 184 188 189 192 199 206 213 215 220 225 230 238 242 254 265 272 283 281 291
217 219 209 187 177 168 164 162 162 160 159 157 158 157 158 159 158 164 170 172 172 179 180 182 186 194 195 198 203 208 213 218 222 229 232 245 253 245 264 275 282 279 286
214 207 190 177 165 160 158 158 159 158 159 160 159 157 159 164 167 170 168 172 173 182 186 189 191 196 197 200 204 211 217 223 226 236 247 242 245 245 267 279 275 273 284
191 182 175 170 165 161 159 160 160 162 161 159 162 161 165 163 164 171 176 180 179 186 190 191 192 197 205 208 213 220 224 229 235 233 234 242 249 257 274 278 275 274 284
161 164 172 167 168 164 164 164 163 162 162 163 167 171 172 170 169 172 179 184 189 193 197 199 200 204 210 218 220 223 229 233 231 232 241 247 258 265 275 273 271 277 283
Height
10605 10605 10604 10602 10600 10598 10597 10599 10602 10603 10608 10612 10618 10625 10632 10642 10655 10672 10687 10703 10719 10731 10744 10755 10764 10775 10784 10791 10796 10801 10807 10811 10816 10816 10819 10817 10817 10815 10810 10807 10801 10796 10789
10583 10583 10581 10580 10581 10579 10579 10578 10581 10588 10592 10595 10600 10606 10613 10622 10633 10648 10663 10679 10696 10712 10724 10739 10750 10761 10772 10778 10784 10790 10796 10801 10808 10810 10811 10810 10810 10809 10805 10803 10798 10792 10785
10567 10564 10562 10559 10559 10561 10561 10561 10564 10568 10572 10576 10580 10586 10593 10602 10612 10625 10640 10656 10672 10689 10704 10720 10734 10747 10757 10765 10771 10779 10784 10791 10798 10803 10803 10803 10804 10803 10800 10797 10793 10787 10782
10545 10545 10543 10540 10540 10540 10542 10545 10545 10549 10554 10556 10563 10569 10575 10584 10593 10603 10618 10635 10651 10666 10682 10698 10715 10731 10742 10752 10759 10767 10774 10781 10790 10793 10795 10796 10797 10797 10795 10792 10788 10783 10778
10526 10524 10523 10521 10522 10522 10522 10523 10528 10530 10534 10538 10545 10552 10559 10567 10574 10583 10594 10610 10628 10646 10662 10679 10695 10712 10724 10736 10748 10756 10763 10772 10781 10784 10786 10789 10790 10790 10789 10787 10783 10779 10774
10507 10505 10502 10501 10502 10504 10504 10505 10510 10513 10515 10519 10526 10535 10542 10549 10557 10566 10575 10590 10606 10625 10642 10660 10677 10693 10709 10721 10736 10745 10753 10763 10771 10775 10779 10781 10783 10784 10783 10781 10778 10775 10769
10489 10487 10485 10483 10483 10484 10484 10487 10490 10494 10497 10502 10508 10517 10525 10532 10540 10548 10556 10571 10586 10604 10621 10640 10659 10676 10690 10706 10722 10733 10744 10754 10760 10767 10771 10773 10775 10776 10777 10775 10773 10770 10764
10469 10467 10462 10462 10463 10464 10465 10467 10470 10473 10478 10483 10490 10497 10507 10515 10521 10530 10539 10554 10569 10586 10602 10621 10640 10657 10676 10692 10707 10722 10734 10743 10751 10758 10763 10765 10769 10769 10771 10770 10768 10765 10760
10447 10443 10440 10441 10442 10441 10443 10443 10446 10450 10457 10463 10471 10477 10488 10494 10501 10512 10523 10537 10551 10565 10582 10602 10623 10641 10661 10678 10697 10711 10724 10734 10742 10749 10754 10758 10761 10763 10764 10764 10762 10760 10755
10423 10422 10420 10418 10419 10415 10414 10417 10421 10426 10432 10437 10447 10456 10466 10476 10482 10493 10506 10521 10535 10549 10566 10585 10608 10628 10647 10666 10685 10700 10713 10724 10733 10740 10746 10750 10754 10756 10758 10757 10756 10753 10750
10402 10403 10402 10397 10396 10394 10394 10395 10399 10403 10410 10416 10426 10434 10444 10455 10464 10476 10490 10505 10518 10532 10551 10573 10596 10615 10636 10656 10674 10690 10702 10713 10722 10731 10738 10742 10746 10749 10750 10751 10749 10747 10745
10383 10383 10380 10376 10374 10373 10374 10374 10376 10383 10389 10395 10401 10411 10424 10434 10445 10460 10474 10490 10503 10518 10539 10560 10584 10605 10625 10643 10662 10679 10692 10702 10714 10723 10729 10735 10739 10742 10743 10743 10744 10741 10739
10365 10362 10357 10357 10356 10356 10357 10355 10359 10363 10369 10375 10384 10394 10406 10416 10429 10444 10459 10475 10490 10507 10528 10550 10574 10594 10611 10633 10651 10667 10678 10692 10705 10713 10721 10727 10731 10734 10737 10736 10736 10735 10734
10344 10340 10339 10339 10339 10340 10341 10341 10345 10348 10354 10360 10370 10380 10393 10406 10417 10431 10447 10462 10476 10496 10519 10540 10563 10582 10604 10626 10643 10656 10670 10685 10695 10704 10714 10719 10722 10726 10728 10728 10730 10729 10728
10325 10324 10325 10326 10326 10328 10329 10331 10333 10336 10343 10350 10359 10373 10389 10399 10407 10419 10435 10449 10466 10487 10507 10529 10553 10576 10597 10614 10630 10649 10665 10679 10689 10698 10704 10709 10715 10718 10720 10721 10722 10723 10722
10309 10311 10314 10315 10318 10319 10320 10320 10322 10327 10335 10343 10353 10366 10380 10393 10406 10418 10433 10447 10466 10483 10506 10529 10547 10566 10586 10606 10629 10645 10658 10672 10680 10688 10696 10703 10706 10710 10712 10714 10716 10717 10715
10298 10301 10304 10307 10310 10312 10314 10316 10319 10325 10333 10341 10351 10364 10375 10387 10400 10412 10425 10443 10462 10487 10510 10529 10546 10565 10587 10606 10624 10637 10650 10662 10672 10681 10689 10694 10699 10702 10704 10706 10708 10710 10707
10291 10295 10298 10300 10303 10308 10311 10314 10318 10324 10331 10339 10349 10361 10374 10388 10399 10412 10429 10448 10471 10489 10509 10528 10550 10571 10590 10606 10618 10630 10643 10654 10666 10675 10681 10686 10690 10694 10696 10700 10701 10702 10699
10287 10290 10293 10296 10300 10305 10309 10312 10317 10322 10330 10338 10350 10362 10375 10388 10401 10417 10429 10453 10472 10492 10514 10535 10555 10571 10586 10600 10613 10626 10637 10648 10658 10667 10671 10677 10682 10686 10688 10692 10692 10693 10692
10284 10286 10289 10293 10297 10302 10305 10308 10314 10322 10329 10339 10351 10364 10378 10393 10409 10426 10441 10459 10478 10500 10520 10539 10554 10569 10584 10598 10611 10621 10633 10643 10652 10658 10664 10669 10674 10677 10681 10685 10684 10684 10683
10284 10286 10289 10292 10294 10298 10301 10307 10314 10321 10331 10344 10358 10371 10385 10402 10417 10434 10452 10470 10489 10508 10525 10540 10555 10568 10580 10593 10605 10617 10627 10636 10644 10650 10656 10662 10665 10670 10674 10675 10676 10675 10673
10282 10284 10287 10290 10291 10296 10303 10310 10318 10326 10337 10349 10364 10377 10393 10411 10431 10448 10464 10479 10497 10513 10527 10540 10556 10567 10579 10591 10602 10612 10620 10628 10636 10643 10649 10653 10658 10662 10665 10666 10666 10665 10663
10280 10283 10286 10288 10292 10299 10306 10315 10323 10332 10343 10356 10371 10386 10405 10422 10441 10457 10472 10488 10502 10515 10527 10539 10552 10564 10576 10586 10595 10604 10612 10621 10628 10634 10641 10646 10650 10653 10654 10655 10656 10654 10653
10280 10283 10288 10290 10296 10303 10312 10323 10332 10342 10352 10365 10381 10396 10412 10428 10442 10459 10475 10489 10503 10515 10526 10538 10550 10561 10572 10582 10591 10600 10607 10616 10622 10628 10633 10636 10639 10641 10643 10644 10644 10642 10641
10280 10283 10288 10293 10300 10308 10318 10327 10338 10349 10361 10375 10389 10401 10413 10429 10443 10459 10475 10488 10501 10513 10524 10535 10546 10558 10569 10578 10587 10593 10601 10607 10614 10619 10622 10626 10628 10631 10632 10633 10632 10631 10630
10282 10286 10291 10297 10305 10312 10320 10332 10343 10357 10370 10383 10395 10407 10420 10433 10446 10460 10476 10489 10501 10512 10523 10535 10545 10556 10565 10573 10580 10588 10594 10600 10604 10609 10612 10615 10618 10620 10621 10620 10619 10619 10618